Location: Township of Marena
(38.1747°N, 99.6798°W)
Time: 03:12:57
(UTC+00:00)

USA 290 - Pass Details

Date: 26 October 2020
Orbit: 395 x 418 km, 73.6° (Epoch: 28 October)

Event Time Altitude Azimuth Distance (km) Brightness Sun altitude
Exits shadow 11:52:05 - 215° (SW) 1,523 4.8 -13.8°
Reaches altitude 10° 11:52:16 10° 216° (SW) 1,446 4.7 -13.7°
Maximum altitude 11:55:20 46° 291° (WNW) 554 2.4 -13.1°
Drops below altitude 10° 11:58:27 10° 6° (N) 1,470 5.0 -12.5°
Sets 12:00:34 0° 13° (NNE) 2,340 6.1 -12.1°
